Location: Gorze? G�rny
(49.8500°N, 19.5000°E)
Time: 03:51:02
(UTC+00:00)

Okean 1-7 - Pass Details

Date: 13 May 2021
Orbit: 591 x 617 km, 82.5° (Epoch: 20 June)

Event Time Altitude Azimuth Distance (km) Brightness Sun altitude
Exits shadow 22:55:58 30° 257° (WSW) 1,083 4.1 -21.4°
Maximum altitude 22:57:02 35° 288° (WNW) 983 4.1 -21.4°
Drops below altitude 10° 23:01:00 10° 354° (N) 1,951 6.7 -21.3°
Sets 23:03:23 0° 4° (N) 2,863 8.0 -21.3°
